When you browse on this site, cookies collect data to enhance your experience and personalize the content and advertising you see.
Visit our Privacy Policy to learn more. By continuing to use the site, you agree to this use of cookies and data.
  • In Portugal
  • List of Countries
  • For 7 days
  • Water Temperature
  • Satellite Maps
  • Weather Map
  • Weather Widgets
  • user-avatar
    Login

    Hourly Weather Holove

    Today, 20 February, Wednesday

    Time Temperature Precipitation Wind Pressure Humidity
    00:00 -1°C° 0 mm 6 mps 738 mmHg 94%
    01:00 -1°C° 0 mm 5 mps 737 mmHg 93%
    02:00 -2°C° 0 mm 6 mps 737 mmHg 94%
    03:00 -1°C° 0 mm 5 mps 737 mmHg 94%
    04:00 -1°C° 0 mm 5 mps 736 mmHg 94%
    05:00 -1°C° 0 mm 4 mps 736 mmHg 94%
    06:00 -1°C° 0 mm 4 mps 736 mmHg 94%
    07:00 -2°C° 0 mm 4 mps 736 mmHg 94%
    08:00 -2°C° 0 mm 4 mps 736 mmHg 94%
    09:00 -1°C° 0.1 mm 5 mps 736 mmHg 95%
    10:00 -1°C° 0.1 mm 5 mps 735 mmHg 97%
    11:00 -1°C° 0.1 mm 5 mps 735 mmHg 98%
    12:00 -1°C° 0 mm 6 mps 735 mmHg 97%
    13:00 -1°C° 0 mm 6 mps 735 mmHg 97%
    14:00 -1°C° 0 mm 6 mps 735 mmHg 96%
    15:00 -1°C° 0.1 mm 6 mps 735 mmHg 94%
    16:00 -1°C° 0.1 mm 6 mps 735 mmHg 92%
    17:00 -1°C° 0.1 mm 6 mps 734 mmHg 90%
    18:00 -1°C° 0.3 mm 6 mps 734 mmHg 90%
    19:00 -1°C° 0.3 mm 6 mps 734 mmHg 89%
    20:00 -2°C° 0.3 mm 6 mps 734 mmHg 89%
    21:00 -3°C° 0.1 mm 6 mps 734 mmHg 86%
    22:00 -5°C° 0.1 mm 6 mps 735 mmHg 82%
    23:00 -8°C° 0.1 mm 6 mps 735 mmHg 79%

    Tomorrow, 21 February, Thursday

    Time Temperature Precipitation Wind Pressure Humidity
    00:00 -8°C° 0 mm 6 mps 736 mmHg 79%
    01:00 -8°C° 0 mm 7 mps 736 mmHg 79%
    02:00 -9°C° 0 mm 7 mps 737 mmHg 79%
    03:00 -9°C° 0 mm 7 mps 737 mmHg 78%
    04:00 -9°C° 0 mm 7 mps 737 mmHg 78%
    05:00 -9°C° 0 mm 7 mps 738 mmHg 78%
    06:00 -9°C° 0 mm 7 mps 738 mmHg 76%
    07:00 -9°C° 0 mm 7 mps 739 mmHg 75%
    08:00 -9°C° 0 mm 7 mps 739 mmHg 74%
    09:00 -10°C° 0 mm 8 mps 740 mmHg 74%
    10:00 -10°C° 0 mm 8 mps 740 mmHg 73%
    11:00 -8°C° 0 mm 8 mps 741 mmHg 73%
    12:00 -8°C° 0.1 mm 8 mps 741 mmHg 72%
    13:00 -8°C° 0.1 mm 8 mps 742 mmHg 72%
    14:00 -8°C° 0.1 mm 7 mps 742 mmHg 71%
    15:00 -8°C° 0 mm 7 mps 743 mmHg 73%
    16:00 -9°C° 0 mm 6 mps 743 mmHg 74%
    17:00 -8°C° 0 mm 5 mps 743 mmHg 76%
    18:00 -10°C° 0 mm 5 mps 744 mmHg 77%
    19:00 -9°C° 0 mm 4 mps 744 mmHg 79%
    20:00 -10°C° 0 mm 4 mps 745 mmHg 80%
    21:00 -10°C° 0 mm 4 mps 745 mmHg 81%
    22:00 -11°C° 0 mm 4 mps 745 mmHg 82%
    23:00 -11°C° 0 mm 4 mps 746 mmHg 82%

    Day after tomorrow, 22 February, Friday

    Time Temperature Precipitation Wind Pressure Humidity
    00:00 -12°C° 0 mm 4 mps 746 mmHg 82%
    01:00 -12°C° 0 mm 4 mps 747 mmHg 82%
    02:00 -12°C° 0 mm 4 mps 747 mmHg 82%
    03:00 -14°C° 0 mm 4 mps 747 mmHg 82%
    04:00 -14°C° 0 mm 4 mps 748 mmHg 81%
    05:00 -14°C° 0 mm 5 mps 748 mmHg 81%
    06:00 -14°C° 0 mm 5 mps 748 mmHg 80%
    07:00 -14°C° 0 mm 5 mps 749 mmHg 79%
    08:00 -15°C° 0 mm 6 mps 749 mmHg 78%
    09:00 -14°C° 0 mm 6 mps 750 mmHg 75%
    10:00 -13°C° 0 mm 7 mps 750 mmHg 72%
    11:00 -13°C° 0 mm 8 mps 750 mmHg 70%
    12:00 -12°C° 0.1 mm 8 mps 751 mmHg 69%
    13:00 -12°C° 0.1 mm 8 mps 751 mmHg 69%
    14:00 -12°C° 0.1 mm 8 mps 751 mmHg 68%
    15:00 -12°C° 0 mm 8 mps 751 mmHg 69%
    16:00 -13°C° 0 mm 7 mps 752 mmHg 70%
    17:00 -12°C° 0 mm 6 mps 752 mmHg 71%
    18:00 -14°C° 0 mm 6 mps 753 mmHg 72%
    19:00 -14°C° 0 mm 6 mps 753 mmHg 73%
    20:00 -14°C° 0 mm 6 mps 754 mmHg 74%
    21:00 -15°C° 0 mm 6 mps 754 mmHg 76%
    22:00 -15°C° 0 mm 6 mps 755 mmHg 78%
    23:00 -14°C° 0 mm 5 mps 755 mmHg 79%

    23 February, Saturday

    Time Temperature Precipitation Wind Pressure Humidity
    00:00 -14°C° 0 mm 5 mps 756 mmHg 80%
    01:00 -14°C° 0 mm 5 mps 756 mmHg 81%
    02:00 -14°C° 0 mm 5 mps 756 mmHg 82%
    03:00 -14°C° 0 mm 5 mps 757 mmHg 83%
    04:00 -14°C° 0 mm 5 mps 757 mmHg 84%
    05:00 -15°C° 0 mm 4 mps 757 mmHg 85%
    06:00 -15°C° 0 mm 4 mps 757 mmHg 85%
    07:00 -15°C° 0 mm 4 mps 758 mmHg 86%
    08:00 -15°C° 0 mm 4 mps 758 mmHg 86%
    09:00 -15°C° 0 mm 4 mps 758 mmHg 84%
    10:00 -14°C° 0 mm 4 mps 758 mmHg 82%
    11:00 -12°C° 0 mm 4 mps 759 mmHg 80%
    12:00 -11°C° 0 mm 4 mps 758 mmHg 79%
    13:00 -11°C° 0 mm 4 mps 758 mmHg 77%
    14:00 -10°C° 0 mm 4 mps 758 mmHg 76%
    15:00 -10°C° 0 mm 4 mps 758 mmHg 77%
    16:00 -9°C° 0 mm 3 mps 758 mmHg 78%
    17:00 -9°C° 0 mm 3 mps 758 mmHg 79%
    18:00 -10°C° 0 mm 3 mps 758 mmHg 80%
    19:00 -9°C° 0 mm 2 mps 758 mmHg 81%
    20:00 -9°C° 0 mm 2 mps 758 mmHg 81%
    21:00 -9°C° 0 mm 2 mps 758 mmHg 82%
    22:00 -9°C° 0 mm 2 mps 757 mmHg 83%
    23:00 -9°C° 0 mm 2 mps 757 mmHg 84%

    24 February, Sunday

    Time Temperature Precipitation Wind Pressure Humidity
    00:00 -9°C° 0 mm 2 mps 757 mmHg 84%
    01:00 -8°C° 0 mm 2 mps 756 mmHg 84%
    02:00 -8°C° 0 mm 2 mps 756 mmHg 84%
    03:00 -8°C° 0.1 mm 2 mps 756 mmHg 87%
    04:00 -8°C° 0.1 mm 2 mps 755 mmHg 90%
    05:00 -8°C° 0.1 mm 2 mps 755 mmHg 93%
    06:00 -7°C° 0 mm 2 mps 755 mmHg 93%
    07:00 -7°C° 0 mm 2 mps 755 mmHg 94%
    08:00 -7°C° 0 mm 2 mps 755 mmHg 94%
    09:00 -6°C° 0.1 mm 2 mps 755 mmHg 94%
    10:00 -5°C° 0.1 mm 2 mps 755 mmHg 93%
    11:00 -2°C° 0.1 mm 1 mps 755 mmHg 92%
    12:00 -2°C° 0.1 mm 1 mps 755 mmHg 92%
    13:00 -1°C° 0.1 mm 1 mps 755 mmHg 92%
    14:00 -2°C° 0.1 mm 2 mps 755 mmHg 92%
    15:00 0°C° 0 mm 1 mps 755 mmHg 93%
    16:00 0°C° 0 mm 1 mps 755 mmHg 94%
    17:00 0°C° 0 mm 1 mps 754 mmHg 96%
    18:00 -2°C° 0 mm 2 mps 754 mmHg 96%
    19:00 -2°C° 0 mm 2 mps 755 mmHg 96%
    20:00 -2°C° 0 mm 2 mps 755 mmHg 97%
    21:00 -3°C° 0 mm 2 mps 754 mmHg 96%
    22:00 -3°C° 0 mm 2 mps 754 mmHg 96%
    23:00 -4°C° 0 mm 2 mps 754 mmHg 96%

    25 February, Monday

    Time Temperature Precipitation Wind Pressure Humidity
    00:00 -4°C° 0 mm 2 mps 754 mmHg 96%
    01:00 -4°C° 0 mm 2 mps 753 mmHg 96%
    02:00 -4°C° 0 mm 2 mps 753 mmHg 95%
    03:00 -4°C° 0 mm 2 mps 753 mmHg 95%
    04:00 -4°C° 0 mm 2 mps 752 mmHg 95%
    05:00 -4°C° 0 mm 2 mps 752 mmHg 95%
    06:00 -3°C° 0 mm 2 mps 751 mmHg 95%
    07:00 -4°C° 0 mm 3 mps 751 mmHg 95%
    08:00 -2°C° 0 mm 3 mps 750 mmHg 96%
    09:00 -2°C° 0.1 mm 3 mps 750 mmHg 96%
    10:00 -2°C° 0.1 mm 4 mps 749 mmHg 96%
    11:00 -1°C° 0.1 mm 4 mps 749 mmHg 96%
    12:00 -1°C° 0.1 mm 5 mps 749 mmHg 94%
    13:00 -1°C° 0.1 mm 5 mps 748 mmHg 93%
    14:00 -1°C° 0.1 mm 6 mps 748 mmHg 92%
    15:00 -1°C° 0 mm 5 mps 748 mmHg 88%
    16:00 -1°C° 0 mm 5 mps 748 mmHg 84%
    17:00 -2°C° 0 mm 4 mps 748 mmHg 81%
    18:00 -4°C° 0 mm 5 mps 748 mmHg 81%
    19:00 -4°C° 0 mm 5 mps 748 mmHg 82%
    20:00 -5°C° 0 mm 5 mps 748 mmHg 83%
    21:00 -5°C° 0 mm 5 mps 748 mmHg 84%
    22:00 -5°C° 0 mm 5 mps 747 mmHg 86%
    23:00 -5°C° 0 mm 5 mps 747 mmHg 87%
    Show more